User: anonymous   Login
Location: NJAA Observatory
(40.6819°N, 74.8979°W)
Time: 22:41:28
(UTC-04:00)
Language:

ALOS - Orbit

View from above orbital plane
View from above orbital plane
View from above satellite
View from above satellite

Ground track
Ground track

The orbit data is extracted from the following two-line orbital elements,

1 28931U 06002A   16236.96196990 +.00000092 +00000-0 +26976-4 0  9993
2 28931 097.8791 272.6550 0001856 121.0883 239.0501 14.62227756564025
Epoch (UTC): 23 August 2016 23:05:14
Eccentricity: 0.0001856
inclination: 97.8791°
perigee height: 684 km
apogee height: 687 km
right ascension of ascending node: 272.6550°
argument of perigee: 121.0883°
revolutions per day: 14.62227756
mean anomaly at epoch: 239.0501°
orbit number at epoch: 56402

The dashed part of the orbit path shows where the satellite is in the earth's shadow,  

DLR